Location: Burzi?i
(45.0869°N, 16.0577°E)
Time: 12:14:51
(UTC+00:00)

Cosmos 1340 - Pass Details

Date: 29 October 2020
Orbit: 501 x 504 km, 81.2° (Epoch: 28 November)

Event Time Altitude Azimuth Distance (km) Brightness Sun altitude
Rises 17:21:27 0° 341° (NNW) 2,616 6.5 -17.1°
Reaches altitude 10° 17:23:40 10° 334° (NNW) 1,727 5.6 -17.5°
Maximum altitude 17:27:11 38° 266° (W) 791 4.2 -18.1°
Drops below altitude 10° 17:30:41 10° 197° (SSW) 1,713 5.5 -18.7°
Sets 17:32:53 0° 189° (S) 2,592 6.4 -19.1°
